Theta_e
344 345 350 349 351 355 355 355 355 355 355 354 355 354 354 353 353 352 351 351 350 350 349 348 348 348 347 348 351 352 351 351 349 352 352 351 351 349 348 348 348 349 348 348 348 348 349 348 348 349 350 350 350 350 350 349 350 349 347 346 346 348 349 349 349 348 348 348 350 350 350 349 350 351 351 352 352 351 350 350 351 349 351 351 350
342 347 350 353 351 355 355 354 355 354 355 354 355 354 353 353 353 352 351 350 350 349 348 348 347 347 348 348 351 351 350 349 349 351 351 351 351 350 349 348 348 349 349 349 348 348 347 347 347 347 347 347 346 347 347 347 347 346 346 345 344 344 347 348 348 347 348 347 348 348 349 348 349 349 351 351 351 351 349 349 349 350 350 349 349
344 347 350 352 350 354 354 355 354 354 354 355 354 354 353 353 352 351 350 350 350 349 348 348 347 347 347 347 348 349 348 349 349 350 350 350 350 350 349 348 348 347 348 348 347 346 345 345 344 344 343 342 342 342 344 345 344 344 344 344 342 342 344 347 347 347 347 346 347 347 347 348 347 348 349 350 351 350 348 348 348 349 349 349 349
344 346 349 350 346 350 353 355 354 354 354 354 354 353 353 353 352 351 351 350 349 349 348 347 347 347 347 347 347 348 348 348 349 349 350 350 350 349 348 347 347 347 347 347 346 345 343 343 342 341 340 339 339 339 339 341 341 342 342 342 342 342 343 345 346 346 345 346 346 346 346 347 347 347 348 348 349 349 347 347 348 349 349 349 349
345 346 349 352 353 350 352 353 355 355 354 354 354 353 353 353 352 351 351 350 349 348 348 347 347 347 347 347 347 347 347 347 347 348 348 349 349 349 348 347 347 346 346 347 346 346 344 344 343 342 340 339 337 337 336 338 339 340 340 341 342 343 343 343 346 345 344 344 345 344 344 346 348 346 347 347 347 346 346 346 347 347 348 348 348
344 347 349 350 351 354 349 352 355 355 355 354 353 353 353 352 352 351 350 350 349 348 347 347 346 347 347 348 347 347 347 347 348 348 348 349 349 349 347 347 347 346 346 346 346 346 345 344 343 342 340 338 337 336 335 336 337 339 339 341 341 343 343 343 345 343 343 342 343 345 344 346 346 346 347 346 347 345 345 346 346 345 345 347 348
344 347 349 349 350 351 347 352 355 355 354 354 353 353 353 352 352 351 350 350 348 348 347 346 347 346 347 347 347 347 347 347 347 348 348 348 348 348 348 348 348 347 346 346 345 345 344 344 343 342 340 337 336 335 335 335 335 338 339 340 342 343 343 342 342 341 340 343 343 343 342 344 346 347 346 346 346 345 345 345 345 344 344 344 345
344 347 349 348 350 349 345 352 354 355 354 353 353 353 352 352 351 351 350 349 349 348 346 346 346 346 347 347 347 347 347 346 347 347 347 348 348 348 348 347 348 347 346 345 345 344 344 343 342 340 339 336 334 334 334 333 335 336 339 340 342 343 343 341 340 340 341 342 344 343 343 343 345 347 346 345 345 344 344 344 344 344 343 343 343
343 347 349 347 350 345 345 348 354 355 355 354 353 353 352 352 351 351 350 349 348 348 346 346 345 346 346 347 347 347 347 347 347 346 347 348 347 348 347 347 346 346 346 346 345 344 343 342 341 339 337 335 333 332 332 332 334 336 339 340 341 341 339 339 340 339 341 344 343 343 344 343 343 345 344 345 345 344 344 342 342 343 343 342 342
342 346 348 348 350 342 345 347 354 354 355 354 353 353 353 352 351 350 349 349 348 347 347 347 346 346 347 347 347 347 347 347 346 346 346 347 347 347 347 346 345 345 345 344 344 343 342 341 340 338 335 332 330 330 330 331 333 335 339 339 339 339 339 339 339 340 342 343 343 343 346 346 343 344 344 344 344 343 342 342 342 342 342 342 341
343 345 349 347 350 341 346 350 352 352 354 353 353 353 352 351 351 350 350 349 349 347 347 348 348 348 348 347 347 347 347 347 346 346 346 346 347 347 347 346 345 345 344 342 342 341 340 341 339 336 334 331 329 329 329 329 332 335 338 337 338 337 338 338 338 339 342 342 342 342 343 343 342 343 342 342 343 342 340 341 341 341 341 341 341
342 345 348 347 345 339 344 348 349 353 353 353 352 353 352 352 351 350 350 350 348 347 347 347 348 348 348 348 348 347 348 347 346 346 346 345 346 346 346 346 345 343 341 340 340 340 341 340 338 335 333 330 328 328 328 328 331 335 336 336 336 337 336 335 337 339 341 340 340 342 342 340 340 341 341 342 341 341 339 338 339 339 339 340 340
342 342 345 347 349 339 342 346 347 351 352 352 352 352 352 352 351 350 350 349 348 348 348 348 347 347 347 348 347 347 347 346 346 346 345 346 345 346 345 345 343 342 342 341 340 340 342 340 337 334 332 329 328 327 327 328 331 334 334 335 336 336 334 331 336 338 338 338 339 341 341 342 341 340 341 340 340 338 337 337 337 337 337 338 338
340 342 343 344 346 341 337 341 344 349 351 350 350 351 351 350 350 350 350 349 348 347 347 347 348 347 347 347 347 347 347 347 346 346 345 346 346 345 345 344 343 342 342 341 340 341 341 339 336 333 330 328 326 326 326 328 330 332 334 334 334 333 331 332 334 337 336 338 339 338 340 340 340 339 338 338 338 337 335 334 335 335 336 335 335
338 340 342 344 345 348 336 338 342 343 347 349 349 349 351 350 350 349 350 349 348 348 347 349 347 347 347 347 347 347 347 347 346 345 346 346 346 345 344 343 343 342 341 341 341 341 339 337 335 332 329 327 325 325 326 327 328 330 332 331 330 328 327 334 336 336 336 338 336 338 339 340 338 336 335 336 336 334 334 334 333 333 333 333 332
338 339 341 342 344 347 349 339 336 337 342 345 346 347 349 349 349 350 348 348 349 349 349 348 348 348 347 347 347 346 345 344 344 344 344 345 344 343 344 343 342 341 339 339 341 339 337 336 333 330 327 325 324 324 324 325 326 329 330 329 327 325 324 326 335 335 335 335 337 338 338 338 336 334 333 333 333 333 333 332 332 332 331 331 330
336 338 339 340 342 343 346 347 344 331 335 338 340 341 344 347 347 349 348 349 348 349 349 349 349 348 348 347 347 346 345 345 345 344 344 343 343 342 342 342 341 340 339 340 340 339 336 334 331 328 326 324 323 323 324 324 325 328 328 327 325 324 323 321 335 334 333 336 337 337 337 337 337 333 332 332 332 332 332 331 331 330 329 328 329
336 336 337 339 340 341 343 346 348 348 350 341 334 338 342 344 344 344 345 346 346 347 347 347 347 346 345 345 343 343 344 345 343 344 343 343 343 342 342 341 340 339 340 340 340 337 334 332 330 328 326 324 323 322 322 323 325 327 325 324 323 321 322 322 334 334 335 334 336 336 336 336 336 333 333 332 332 332 331 331 330 327 327 329 329
333 335 337 338 338 339 341 344 346 347 348 348 350 348 335 340 341 341 340 342 344 343 343 343 342 343 342 339 337 337 337 337 339 340 341 339 337 336 342 342 340 340 340 340 338 336 333 332 330 328 326 324 323 322 321 322 324 325 323 322 319 317 317 325 333 333 335 333 334 335 334 334 335 333 332 332 332 332 331 329 328 327 328 329 328
330 331 333 335 336 337 339 341 343 345 346 347 349 350 337 333 337 338 337 338 340 340 339 337 334 334 336 332 329 335 333 338 329 340 334 337 335 338 338 339 341 340 340 339 337 335 333 332 330 328 325 322 320 320 319 320 321 322 321 319 317 315 327 327 330 332 331 331 332 334 331 334 333 333 332 332 332 331 330 329 325 325 328 328 328
320 321 324 327 332 335 337 339 340 342 344 346 347 348 348 331 334 332 333 336 336 336 337 330 324 322 327 322 324 349 348 347 343 345 328 343 329 329 334 338 340 341 339 338 336 335 333 332 330 327 322 318 314 313 313 315 316 318 318 315 313 323 325 327 328 328 329 329 330 332 329 332 331 332 332 332 331 330 329 326 326 327 328 328 327
314 315 318 316 319 327 335 337 339 340 342 344 345 346 348 340 348 349 348 341 333 330 341 348 336 348 325 337 346 346 347 347 345 338 345 343 335 324 330 336 339 337 337 337 336 334 333 332 329 326 321 315 312 314 313 312 310 313 313 313 319 320 323 324 325 325 326 327 327 327 327 332 330 331 331 330 330 329 327 327 328 328 327 327 326
312 314 315 315 317 318 327 335 338 340 341 343 344 344 346 346 347 346 348 337 343 346 347 346 347 348 347 347 343 345 346 345 346 343 343 329 337 323 328 331 334 333 335 336 335 335 333 332 329 324 318 314 317 313 311 311 312 308 310 315 316 318 320 321 322 323 323 324 326 320 324 329 330 330 330 329 328 327 325 327 328 328 326 325 326
311 312 313 316 316 317 317 325 335 339 340 340 342 343 344 346 348 347 347 345 345 346 347 346 346 344 344 345 344 344 345 344 330 325 331 340 336 322 325 325 327 329 329 333 333 333 333 331 327 321 319 319 320 314 311 309 308 309 310 309 311 315 316 316 317 318 318 322 324 316 321 326 329 329 329 329 328 327 326 328 327 327 326 326 326
311 312 315 314 315 316 317 318 330 336 338 339 340 342 343 344 344 344 346 347 345 345 345 345 346 345 345 345 345 346 347 344 344 343 343 341 340 340 339 339 338 338 327 337 335 335 333 334 328 324 327 324 320 314 313 311 309 308 308 307 308 310 312 313 313 313 315 316 317 313 316 321 326 330 332 330 329 327 326 327 326 326 326 325 324
311 312 312 313 316 317 318 317 320 332 337 339 339 341 342 342 342 343 342 343 344 346 345 344 341 344 345 345 345 344 346 344 343 341 341 341 339 340 339 338 338 337 335 336 335 335 335 334 331 329 325 323 319 314 310 309 310 308 307 308 308 308 309 310 310 311 311 311 313 310 314 316 321 326 328 331 331 330 327 326 328 327 326 326 325
309 310 312 313 315 316 317 318 319 329 334 338 339 340 341 342 342 343 342 340 343 342 341 344 345 344 344 343 342 341 342 342 342 342 340 340 339 339 338 338 338 336 336 335 335 334 334 331 331 329 325 321 316 312 309 308 309 309 309 308 307 307 308 308 308 308 310 310 312 309 310 314 315 320 324 327 329 332 333 330 326 327 327 327 325
308 309 312 313 314 314 317 318 320 328 333 335 337 338 340 342 342 338 340 339 341 341 340 340 341 342 343 343 340 341 342 341 341 339 339 341 340 340 339 338 337 337 336 336 335 331 330 331 331 328 324 322 318 315 312 311 311 311 311 310 309 308 308 308 308 308 309 309 310 312 310 312 313 314 318 323 326 328 331 332 332 327 328 326 326
305 307 309 311 313 315 319 318 321 328 332 334 335 338 339 340 342 343 341 338 341 340 342 342 341 340 339 340 340 340 340 340 339 338 339 338 339 338 338 337 336 336 334 332 332 330 330 330 330 327 326 324 322 320 317 316 316 315 314 313 311 309 309 309 309 309 309 308 309 309 308 310 312 313 314 316 320 324 328 331 333 332 329 328 328
304 305 306 309 311 313 319 319 323 327 331 333 334 336 338 339 339 339 339 338 338 339 339 340 339 339 339 338 338 338 338 339 338 339 340 338 338 337 336 336 335 334 333 332 331 330 331 330 328 326 325 325 324 321 320 318 316 315 314 313 311 310 309 308 309 308 309 309 309 309 308 307 307 313 313 314 315 319 323 327 330 333 332 333 331
304 304 306 307 309 312 320 321 324 328 332 332 333 335 339 336 339 342 339 336 333 332 332 332 331 331 332 332 332 335 336 338 338 337 337 338 337 336 336 336 334 334 332 332 331 331 330 328 327 327 326 325 324 321 319 320 320 317 314 314 313 313 312 313 312 311 309 308 309 309 311 306 306 308 312 312 313 316 319 322 327 331 332 333 333
303 303 304 306 308 311 316 321 325 328 332 332 334 333 331 326 326 327 325 324 323 323 323 323 322 324 325 327 327 330 333 334 333 332 330 331 333 332 329 332 332 331 330 330 328 326 324 323 325 324 324 324 323 320 319 321 321 319 317 316 314 316 316 315 314 312 310 309 309 309 309 310 307 306 309 311 312 313 316 319 322 325 329 331 332
302 302 303 306 307 311 315 320 322 325 325 324 323 321 321 320 320 320 320 321 320 319 318 319 319 319 320 323 325 326 327 328 328 327 327 328 327 325 323 323 324 324 321 320 321 321 319 319 318 318 320 321 321 319 319 320 320 319 318 317 317 317 316 315 315 313 311 310 308 308 308 309 309 309 308 308 310 311 313 316 318 320 324 327 329
300 302 303 304 307 311 316 318 320 319 319 318 318 317 316 316 315 315 315 316 316 315 314 314 315 316 318 318 320 321 322 323 324 324 324 323 322 320 320 319 319 319 318 319 318 318 319 318 315 318 315 318 318 317 318 321 320 319 319 317 316 316 315 314 313 312 310 309 308 308 307 307 307 308 310 309 309 310 311 313 314 317 320 322 324
300 301 302 303 306 310 316 316 316 316 315 314 313 311 311 311 311 311 311 311 312 312 311 311 312 313 314 314 317 318 318 318 320 320 320 319 318 317 318 319 320 320 318 318 318 317 316 314 314 317 318 316 314 313 315 316 315 316 316 315 316 315 314 313 312 311 309 309 307 308 307 306 306 307 309 307 307 308 308 311 313 314 317 319 320
299 299 301 303 305 308 314 315 314 313 312 311 309 308 307 306 307 306 306 307 306 307 307 307 308 308 309 310 314 315 315 315 315 317 316 316 315 315 315 316 317 316 316 316 317 316 314 312 313 316 316 314 313 312 311 312 314 315 315 315 315 314 313 313 312 311 310 308 308 307 307 306 307 306 304 306 307 307 305 308 310 311 313 313 315
298 299 299 302 304 305 309 313 311 309 308 307 307 305 304 302 302 302 302 302 302 302 303 304 304 304 304 306 308 310 311 311 313 315 316 314 314 314 314 315 315 313 312 312 313 314 314 312 309 309 313 313 313 311 310 308 310 312 313 313 313 312 311 312 311 310 309 307 307 306 306 306 306 303 306 306 306 307 307 306 307 308 309 310 311
297 299 299 301 302 304 305 309 309 308 307 305 304 304 302 302 302 301 301 300 301 301 301 302 302 303 303 303 304 306 307 308 309 311 311 311 311 312 313 315 315 313 312 311 310 310 310 312 307 306 306 308 307 306 305 303 304 306 309 311 310 309 310 310 309 305 306 306 305 306 305 304 305 305 304 305 306 305 306 307 307 308 308 308 309
296 298 299 301 303 303 304 305 307 306 306 305 304 304 303 301 300 300 299 299 298 298 299 299 300 300 300 301 303 303 303 306 306 307 308 307 308 308 309 310 310 309 309 309 309 309 309 308 309 306 303 302 301 301 300 300 301 302 304 307 309 309 309 308 306 305 304 305 305 303 306 305 304 305 304 304 304 304 305 306 305 306 306 308 308
296 297 299 299 300 302 304 304 304 305 305 304 303 302 302 302 300 298 297 296 295 294 295 296 296 297 298 299 301 301 302 302 304 305 304 304 305 306 305 305 305 305 304 304 303 304 305 306 306 307 306 304 303 301 300 299 301 304 306 309 310 308 307 306 305 304 305 306 306 304 303 303 304 304 304 304 304 305 305 305 305 305 306 307 308
296 297 298 298 298 299 301 301 303 305 305 304 305 303 301 300 299 297 295 294 294 294 294 294 294 294 295 296 297 298 299 300 301 303 304 302 303 303 303 303 303 303 302 302 302 302 303 305 305 304 304 302 299 299 300 301 304 307 308 309 308 308 306 304 303 304 306 306 304 302 303 303 304 303 303 303 304 304 304 304 304 305 305 306 305
295 295 295 296 298 299 300 301 302 303 304 303 302 301 300 299 298 296 295 295 294 294 293 293 293 294 295 295 296 296 297 298 298 300 301 301 301 301 302 302 303 303 303 303 303 302 303 303 305 305 304 301 299 301 301 304 305 302 303 305 306 309 306 303 302 305 307 305 302 303 304 302 302 302 303 303 304 304 303 303 304 304 305 304 304
295 295 296 297 298 298 299 300 301 301 301 301 302 300 299 298 296 294 294 292 293 294 294 294 294 293 294 294 294 295 295 295 296 296 297 298 299 299 300 301 301 302 301 301 301 301 302 302 303 304 304 304 303 302 302 302 300 301 303 302 303 300 305 302 305 304 305 301 302 304 303 302 302 303 302 303 303 302 303 303 303 303 304 304 304
294 295 295 296 297 298 298 299 299 299 298 297 296 296 295 296 295 294 294 294 292 293 293 293 293 293 292 293 293 294 294 294 294 295 295 295 296 296 297 298 298 300 300 299 299 299 300 300 301 301 302 302 301 301 301 301 299 299 299 299 299 299 299 302 298 301 303 300 304 304 301 302 303 304 302 301 302 303 303 303 302 303 303 303 303
293 293 294 294 295 296 297 298 297 298 298 297 296 296 295 294 294 295 295 294 294 293 292 291 291 291 291 291 291 293 293 293 293 293 293 293 294 294 294 294 295 296 297 296 296 296 297 298 299 299 299 300 299 300 300 301 300 300 298 298 299 299 297 296 296 300 301 302 303 302 301 302 301 300 300 301 302 303 302 302 302 302 303 303 303
291 291 293 294 295 295 296 296 296 296 296 296 297 298 297 296 296 294 292 291 290 290 289 289 289 290 289 291 292 292 292 292 292 293 293 292 293 293 293 293 293 293 294 294 294 294 294 295 296 297 297 299 299 298 298 300 300 300 300 298 297 294 293 295 296 294 300 301 302 301 301 302 300 300 300 301 301 301 301 301 302 302 302 302 302
290 291 292 292 293 294 294 294 294 294 294 294 295 295 294 293 293 292 291 290 288 289 290 290 290 290 291 290 291 291 292 291 292 292 292 292 292 292 293 292 292 292 292 292 292 292 293 294 294 294 294 295 297 294 295 296 299 298 299 299 299 298 297 295 293 294 292 297 299 299 300 301 300 299 299 299 299 299 299 299 300 301 301 302 302
290 290 291 291 291 292 292 292 292 292 293 294 294 294 293 293 292 291 291 290 289 289 289 290 291 291 290 290 290 290 291 291 291 291 292 292 292 292 292 292 291 291 291 291 291 291 292 293 293 293 293 293 293 292 291 292 291 292 295 295 297 297 298 297 296 293 292 290 292 298 300 298 298 298 299 297 297 298 298 298 299 299 299 300 300
290 290 290 290 291 291 291 291 291 292 292 293 293 293 293 292 292 291 290 290 290 290 290 291 290 291 290 290 290 290 290 291 291 291 291 291 291 291 291 291 291 290 290 291 291 291 291 291 291 290 291 291 292 292 291 290 291 290 291 291 292 292 294 296 296 294 290 289 289 290 291 294 295 295 296 296 297 296 296 297 297 299 299 300 300
289 289 290 291 291 291 291 291 290 291 292 292 292 292 292 292 291 291 290 290 290 290 291 290 290 290 289 290 290 290 290 290 290 290 290 290 290 290 290 290 290 290 290 290 291 290 291 291 291 291 291 290 291 291 290 290 291 291 291 290 289 289 290 290 290 290 290 291 288 287 288 287 286 290 293 295 294 294 295 296 297 298 298 299 300
289 289 290 290 291 291 290 290 290 291 291 291 292 291 292 292 291 291 291 291 291 291 290 289 290 290 289 289 289 289 289 289 289 289 290 290 290 289 289 289 289 289 289 289 289 289 289 289 290 290 290 290 289 290 290 290 290 290 290 289 289 288 288 287 287 288 288 286 286 286 287 287 287 287 291 293 292 293 294 296 296 297 297 297 298
Wind_Speed
8 8 12 11 8 10 14 14 14 13 13 13 12 11 12 12 12 12 11 11 12 11 10 9 9 9 9 9 11 10 10 10 10 10 9 9 9 10 11 12 13 13 13 13 12 13 12 12 12 13 14 14 14 14 14 13 14 14 14 14 14 13 13 13 12 12 12 12 12 13 13 13 14 14 14 14 15 14 14 14 10 9 8 9 12
13 10 12 12 8 10 13 14 14 14 13 13 12 12 12 12 11 11 11 11 11 10 10 10 10 9 9 9 12 10 9 9 9 9 9 9 10 10 11 11 12 13 13 14 14 14 13 13 13 13 13 13 13 13 12 12 12 12 12 13 13 12 12 12 12 11 11 9 9 9 10 12 13 13 14 15 15 15 14 13 13 9 8 10 12
11 10 12 13 8 8 10 12 13 14 13 13 13 13 12 12 12 11 11 10 10 10 9 9 9 10 9 9 8 10 9 9 9 9 10 10 11 10 11 11 11 12 13 14 14 14 13 13 13 13 13 12 12 11 11 11 10 10 10 11 11 11 10 10 10 10 10 9 7 4 10 11 12 12 13 14 15 15 14 14 14 12 9 13 11
10 10 12 11 7 7 10 10 11 11 12 11 12 13 13 12 12 12 12 11 10 10 9 8 8 9 9 9 9 9 8 8 9 8 9 10 10 10 10 11 12 12 13 13 13 13 13 13 13 13 13 13 12 12 11 10 10 9 9 9 9 9 8 8 8 9 8 7 7 6 5 7 9 11 12 13 13 14 13 14 13 14 13 14 14
8 10 12 12 11 8 10 9 10 10 11 12 12 13 13 13 13 13 12 11 10 10 9 8 8 8 8 8 8 8 9 9 8 8 8 9 10 11 11 11 12 12 12 13 13 13 13 13 13 13 12 12 12 12 11 11 10 9 9 8 8 8 7 6 7 7 7 5 6 5 6 7 7 10 11 12 13 13 13 13 14 13 13 13 15
7 9 11 13 12 11 8 8 10 10 11 12 12 13 12 12 12 12 12 11 10 9 9 8 8 9 8 9 8 8 8 9 9 8 8 9 10 11 11 11 11 12 12 12 12 13 12 12 12 12 12 12 12 12 11 11 10 9 8 8 7 7 6 6 5 6 4 1 4 4 5 5 6 7 11 11 12 12 12 13 13 13 13 13 12
7 8 11 12 10 12 7 9 10 10 11 12 13 13 12 11 11 11 11 11 10 10 9 8 8 9 9 8 8 8 8 9 8 8 8 9 10 11 10 11 11 12 11 12 12 12 11 11 12 12 11 11 11 11 11 10 10 9 8 7 7 7 7 7 6 5 4 6 3 3 4 5 6 5 11 11 12 12 12 12 13 13 13 13 12
6 7 10 11 10 11 8 8 10 10 11 11 12 12 12 12 10 10 10 10 9 9 9 8 8 8 8 8 8 8 8 8 8 8 8 8 9 9 10 10 10 10 11 10 9 10 11 11 11 11 11 11 11 10 10 9 9 8 8 7 6 7 7 7 6 5 6 2 3 4 3 4 5 5 10 10 11 10 9 10 11 12 12 12 12
7 8 9 10 9 11 7 8 9 10 11 12 12 12 12 12 10 10 10 10 10 9 9 9 8 8 8 8 7 7 7 7 8 7 7 8 9 9 10 10 9 9 10 10 11 11 10 11 11 11 11 11 10 10 9 9 8 8 7 6 7 7 6 5 5 3 2 2 2 3 3 3 3 5 8 10 11 11 12 9 7 10 12 11 10
6 8 8 9 9 8 6 7 8 11 12 12 11 11 13 12 11 11 10 10 10 9 9 9 9 9 9 8 7 7 7 7 7 7 7 8 9 9 10 10 9 10 8 9 10 10 10 10 11 11 10 10 8 8 8 8 7 7 7 6 6 7 5 4 3 3 1 1 2 3 5 9 4 5 8 9 11 12 11 10 9 9 9 10 11
6 6 7 8 7 8 3 5 7 8 10 11 11 11 12 12 11 12 11 11 10 10 10 10 9 9 9 9 8 8 8 7 7 7 7 8 8 10 10 9 9 8 8 8 8 6 8 9 9 9 10 9 8 7 7 7 7 7 6 6 6 6 5 1 9 1 1 2 2 3 4 5 3 5 8 9 10 10 10 9 9 10 10 11 11
6 5 6 8 8 5 2 3 5 6 9 10 11 10 12 11 11 11 11 10 10 9 9 10 10 10 10 9 8 9 9 9 7 7 6 7 7 9 10 10 8 7 8 7 6 7 7 8 9 9 9 9 8 7 7 6 6 7 6 6 6 6 4 2 4 2 1 2 3 2 2 1 4 6 7 8 8 9 8 9 9 10 9 10 10
4 4 5 6 7 6 3 2 2 5 7 10 12 12 11 12 11 11 10 10 10 9 9 9 8 9 9 9 9 8 7 8 9 8 7 7 8 8 9 9 9 8 8 8 8 9 9 9 9 9 9 9 8 7 7 7 6 7 6 6 6 5 2 6 0 1 2 1 2 1 1 2 3 7 6 7 7 8 8 8 8 8 9 9 9
2 4 4 6 6 7 3 2 2 2 5 7 9 10 11 12 12 11 11 10 9 8 8 9 9 9 8 8 7 7 8 7 9 9 8 8 9 9 9 7 7 8 8 9 8 9 9 9 9 10 9 9 8 7 7 7 7 7 7 6 5 4 1 0 2 1 2 1 2 1 1 1 4 5 4 5 7 7 7 7 7 7 7 8 8
1 4 4 4 6 7 4 2 2 0 2 6 8 9 11 11 11 10 10 10 9 7 8 6 8 7 8 7 7 8 10 10 9 8 8 9 9 10 8 8 8 7 9 9 9 9 9 9 10 10 9 9 8 8 8 8 8 8 8 8 7 5 7 1 1 2 2 1 2 1 1 1 7 3 4 5 6 7 6 6 6 6 7 7 7
2 2 3 4 4 7 7 5 2 2 1 3 7 7 7 7 7 9 8 7 8 8 7 5 6 8 5 6 6 4 4 4 5 7 8 8 9 8 8 7 7 8 8 8 9 9 9 9 10 10 9 8 8 8 8 8 8 8 8 8 7 7 7 8 2 1 2 1 2 1 1 3 7 2 2 3 5 5 6 6 6 6 6 7 6
3 1 2 3 3 5 7 8 6 3 3 2 5 6 5 6 8 8 7 6 7 8 7 5 5 6 5 4 3 6 4 6 7 7 5 5 8 6 5 6 7 8 7 8 8 9 9 9 9 9 8 8 8 8 8 7 8 8 8 8 8 7 6 9 1 1 1 2 1 1 1 3 7 3 3 5 4 5 5 6 6 6 6 6 6
5 3 1 1 2 3 5 7 8 8 9 5 3 6 7 6 5 7 9 8 6 6 7 5 5 5 4 2 5 6 5 3 4 5 5 5 7 4 5 6 6 7 8 10 10 10 9 9 9 9 8 8 8 8 8 8 8 8 8 8 7 7 5 8 2 1 2 1 1 1 1 8 7 4 3 4 4 4 5 5 6 5 5 5 6
5 5 4 2 1 2 4 6 7 10 11 10 9 7 8 7 7 6 4 9 8 7 6 5 4 5 4 4 5 6 5 5 6 6 5 7 6 5 6 6 7 9 10 11 10 10 10 9 9 9 8 8 8 8 8 8 8 8 8 7 5 5 4 5 2 3 2 1 2 2 5 11 7 4 6 5 4 5 4 5 5 4 4 5 6
5 5 4 4 3 2 3 4 6 8 9 9 9 9 8 8 7 7 6 5 8 7 7 6 6 5 5 7 5 5 5 5 6 6 5 3 7 6 7 7 7 10 11 11 11 11 10 9 9 9 8 7 8 8 8 8 8 8 7 6 5 7 1 2 3 2 2 3 4 2 10 11 10 7 6 6 6 5 5 4 4 3 3 4 5
4 5 5 5 4 4 3 4 5 7 8 9 8 9 6 8 7 10 9 7 4 6 7 8 8 7 7 7 7 5 5 4 5 5 7 5 4 7 5 6 7 9 10 10 12 11 10 10 9 8 7 6 6 7 8 8 8 8 6 5 6 2 3 3 3 3 3 3 3 4 13 12 9 8 7 6 5 5 4 5 4 2 3 4 4
5 5 5 7 6 4 5 5 5 6 7 7 6 6 5 7 9 9 9 8 8 7 7 8 7 7 6 6 6 5 5 4 5 4 5 6 4 1 4 5 7 9 9 10 11 11 11 11 8 8 7 5 1 1 3 5 6 6 5 4 2 3 3 3 3 3 3 3 4 7 13 13 8 8 6 5 5 4 4 4 4 3 3 3 3
6 6 5 7 6 5 5 5 6 6 6 8 6 6 8 7 10 10 7 9 10 9 9 9 8 6 6 7 6 6 5 4 4 4 3 4 4 5 7 7 9 10 10 10 11 11 11 10 9 9 7 4 1 2 2 1 2 3 1 2 3 3 3 3 3 3 3 4 3 11 12 13 11 7 7 5 5 4 5 4 4 4 5 4 4
6 6 6 4 6 5 6 6 6 6 6 5 6 6 6 7 6 6 7 8 8 8 8 7 6 6 5 4 5 5 6 5 6 7 6 6 6 7 8 8 7 8 11 9 10 9 10 11 11 9 6 1 2 2 2 1 2 2 2 2 3 3 3 3 3 3 3 3 3 10 11 11 12 10 7 5 4 5 5 6 4 4 3 3 3
6 6 5 6 7 6 5 5 6 5 6 5 6 6 5 6 6 7 2 5 6 6 7 7 6 6 6 5 5 4 4 5 5 5 6 6 7 7 7 7 6 6 7 6 6 6 5 4 4 4 2 3 2 2 2 2 2 2 2 2 2 2 2 2 3 3 3 3 4 8 9 10 11 11 11 8 6 4 4 5 4 5 3 4 5
6 6 8 7 8 8 6 4 5 5 6 6 5 5 5 5 6 6 6 2 1 4 5 5 5 6 6 5 5 6 6 4 5 6 6 6 6 7 7 5 5 6 7 6 5 4 3 1 3 3 2 2 3 2 2 2 2 2 2 2 2 2 2 2 2 2 3 3 4 7 7 9 10 10 10 10 9 9 7 4 7 7 4 3 4
7 7 7 7 8 8 7 5 3 4 6 6 5 5 5 6 5 4 4 6 5 3 3 2 1 2 4 5 6 6 6 6 6 6 6 6 7 7 6 5 6 6 6 6 6 4 3 2 2 3 3 3 3 3 2 1 1 2 1 1 2 2 1 1 1 2 2 2 3 4 7 8 10 10 10 10 12 12 12 9 5 8 7 5 2
7 8 8 8 8 9 7 4 2 4 4 5 6 5 5 6 4 4 5 3 5 5 2 1 1 2 4 4 5 5 5 6 6 6 5 7 6 5 5 5 5 5 4 3 4 1 2 3 3 3 3 3 3 2 3 2 1 1 1 1 1 2 2 2 1 1 1 1 1 4 5 7 9 10 10 10 11 12 12 12 11 6 9 5 5
8 9 8 7 8 8 7 3 2 4 3 4 4 5 5 5 3 2 3 3 2 4 4 3 1 1 2 3 3 4 4 4 5 5 5 7 7 6 5 5 5 4 4 4 4 4 3 3 3 2 2 2 2 2 2 2 0 1 2 2 2 2 2 2 2 2 1 2 2 2 2 3 5 7 8 9 10 11 12 13 12 10 8 9 10
9 9 9 8 8 9 7 3 2 4 3 4 3 4 4 4 4 4 3 2 1 4 5 5 4 3 2 2 3 5 5 6 5 3 4 5 5 5 4 4 5 3 3 4 4 4 4 3 2 2 2 2 2 1 1 2 1 1 2 3 3 3 2 3 2 2 2 2 2 0 4 2 2 4 5 7 8 9 11 13 13 14 10 10 10
9 10 9 9 9 9 7 5 3 4 2 5 4 2 5 2 3 1 5 7 8 8 7 7 7 7 6 6 6 5 4 2 2 3 5 6 7 4 3 2 3 2 2 3 2 3 1 1 1 1 1 1 1 1 1 1 1 1 1 2 3 3 3 3 3 3 3 3 3 3 1 4 1 2 4 5 6 8 9 11 12 13 14 13 12
9 10 9 9 9 10 8 7 3 3 4 6 4 6 8 10 11 8 9 8 9 7 8 7 7 7 7 8 7 6 4 4 5 5 5 5 5 5 6 4 1 1 1 1 1 3 4 4 4 3 2 0 1 0 2 2 1 2 2 2 2 3 4 4 4 4 3 3 3 3 3 2 4 1 2 4 6 7 8 8 10 11 12 14 15
7 8 10 9 10 9 8 8 8 8 11 11 10 10 8 9 9 9 9 8 9 9 9 8 7 7 9 9 8 8 7 6 6 6 7 6 5 5 6 6 5 4 4 5 5 3 4 2 3 3 2 2 2 2 1 2 2 2 2 3 3 4 4 5 5 4 5 4 4 4 4 4 4 4 5 1 3 4 6 7 8 9 10 10 12
7 7 10 10 8 5 5 7 9 11 11 11 11 10 10 9 9 9 9 9 9 10 10 9 9 9 8 10 9 9 8 7 7 8 7 7 7 7 6 5 4 5 5 4 5 4 4 4 4 1 2 1 2 2 2 2 1 1 1 1 2 2 3 4 4 4 4 4 4 4 4 4 4 4 2 4 3 2 3 6 7 8 9 9 9
7 8 10 10 10 8 6 7 10 11 12 13 13 12 10 10 10 9 9 10 9 10 9 8 9 8 8 10 11 10 10 9 8 7 6 7 7 6 7 6 5 5 5 5 4 5 5 4 1 1 2 3 2 2 3 2 2 1 1 1 2 2 3 3 2 2 2 3 3 3 4 4 4 4 3 4 3 5 2 5 8 8 9 9 9
9 8 8 8 9 10 11 10 12 13 13 12 12 12 11 10 10 10 10 10 9 9 8 9 9 9 8 8 11 11 11 10 9 8 8 8 7 7 7 6 7 6 6 5 4 5 4 4 3 2 2 3 2 2 2 2 2 2 2 2 2 2 3 3 2 3 2 2 2 3 3 4 4 4 5 4 4 2 3 3 5 7 8 8 9
8 9 8 8 9 9 8 13 13 13 13 14 14 13 12 12 12 11 11 10 10 9 9 7 8 9 8 7 9 10 11 11 11 10 9 9 9 8 7 7 7 7 5 6 7 5 3 3 3 4 2 1 1 1 1 2 3 4 3 2 2 3 3 3 3 2 1 2 3 3 3 3 3 3 3 4 4 5 2 1 4 5 6 6 7
7 8 8 7 7 7 8 8 10 11 10 11 12 11 11 11 11 10 11 12 11 9 8 8 9 9 9 9 9 9 10 11 10 9 9 10 8 7 7 7 7 7 6 6 7 5 5 5 4 4 5 4 3 3 3 3 3 4 3 3 2 2 3 3 2 2 2 3 3 3 3 3 3 3 3 3 4 4 5 3 4 6 6 4 6
6 8 8 7 7 7 7 7 9 11 11 11 12 11 12 13 11 11 12 12 10 10 9 9 9 9 9 10 10 9 9 9 9 8 9 8 8 7 8 9 7 7 7 6 6 6 6 5 4 5 5 4 4 3 2 2 2 3 4 3 2 3 3 2 2 2 2 3 3 3 2 3 3 2 3 3 3 4 4 4 5 5 4 2 6
6 7 8 9 9 8 7 7 7 7 8 9 8 8 8 9 11 10 12 10 9 9 9 9 9 9 10 10 10 10 10 9 9 9 9 8 7 7 8 8 7 6 7 8 7 6 5 6 7 6 5 5 3 2 2 3 3 3 3 3 3 3 3 1 1 1 2 3 3 3 3 3 2 3 3 2 3 3 3 4 4 4 5 5 4
8 8 9 9 9 7 7 8 6 5 5 5 6 7 8 8 9 11 10 8 8 8 9 8 9 9 10 10 10 10 11 11 11 10 10 8 8 7 7 7 6 6 7 6 5 5 4 3 3 3 4 5 5 5 4 3 3 2 3 4 3 3 2 1 2 2 3 4 3 2 3 3 3 3 3 2 3 3 3 4 4 4 5 5 5
8 8 9 8 8 8 9 7 6 7 8 8 7 8 7 6 8 8 9 8 8 8 9 9 9 9 10 10 10 11 11 11 11 11 11 11 10 9 9 9 8 8 8 8 9 8 9 7 5 4 5 5 5 5 6 5 1 4 5 5 3 1 4 2 2 4 6 4 2 2 3 3 3 3 3 4 3 3 4 4 4 5 4 4 5
7 8 8 8 8 8 8 7 8 8 9 8 8 8 8 8 9 8 9 10 9 9 10 10 9 10 11 11 11 10 11 11 11 10 9 10 10 9 8 8 9 7 8 9 10 10 9 9 9 6 2 4 4 6 7 7 4 5 4 4 3 6 2 3 2 9 8 2 1 3 2 2 3 4 4 4 5 6 5 5 5 5 5 5 5
6 7 7 7 7 8 7 8 9 10 10 10 11 11 11 11 11 10 10 10 10 9 11 10 11 12 12 11 11 11 11 11 11 11 10 10 10 9 8 9 9 9 8 8 10 10 9 9 9 9 7 5 5 7 8 8 7 8 4 4 5 3 4 1 9 8 2 1 3 5 3 3 5 5 5 6 7 8 7 6 6 6 6 6 6
6 5 5 5 5 7 8 9 9 9 8 9 10 10 10 11 10 10 9 10 9 9 10 10 10 11 11 11 11 11 11 11 11 12 10 11 10 10 9 9 9 9 8 9 9 9 9 8 9 9 9 6 6 6 7 8 10 8 6 5 2 2 4 6 9 4 3 6 6 3 2 4 5 5 5 7 8 7 7 7 7 6 7 7 6
6 6 5 5 6 7 8 9 8 7 7 8 6 5 6 6 6 7 8 8 9 9 10 9 8 9 10 8 10 11 11 11 10 11 11 10 11 10 10 10 10 9 9 9 8 9 10 10 10 8 9 9 6 7 6 6 7 8 7 5 3 4 6 7 6 4 7 5 1 3 3 4 3 5 7 7 7 7 7 7 7 8 7 7 7
5 4 4 5 6 7 7 7 7 7 6 6 7 7 9 9 11 10 9 9 10 8 7 8 8 8 8 9 9 10 10 11 11 11 11 10 10 10 10 10 9 8 9 9 9 10 9 9 9 9 9 8 8 8 8 8 4 7 6 5 4 3 3 5 5 7 8 1 1 3 4 3 4 7 7 6 7 7 7 7 9 9 9 8 7
3 4 4 5 7 7 8 8 7 7 6 7 8 8 10 10 11 11 10 10 10 9 8 8 8 8 9 9 8 9 10 10 10 10 10 10 9 10 9 9 9 9 8 8 9 8 7 8 9 9 8 8 9 8 7 7 7 7 8 7 6 5 3 3 4 5 6 9 8 3 0 5 7 6 4 6 7 7 9 8 8 9 8 8 8
3 4 4 5 6 7 8 9 10 9 8 9 10 10 10 10 10 10 11 9 9 8 7 7 8 8 10 8 8 8 9 10 10 10 11 10 10 9 9 9 9 8 7 7 7 8 9 9 9 9 8 8 7 7 6 6 6 6 7 7 7 7 5 3 2 5 6 9 10 8 9 6 6 5 5 6 5 7 8 8 8 8 7 8 7
3 4 5 5 6 7 9 11 10 8 8 10 11 12 11 10 11 10 12 10 8 8 7 7 7 7 9 8 8 8 7 8 9 10 10 10 10 10 9 9 9 8 7 8 7 8 8 8 8 8 8 7 6 6 6 5 5 5 5 5 5 6 5 5 5 7 6 5 9 12 10 12 11 7 7 4 7 8 7 7 8 7 7 7 7
3 4 5 5 6 7 9 12 10 9 9 10 11 11 10 10 10 11 11 11 9 8 8 8 7 7 8 8 7 7 7 7 7 8 9 9 9 9 8 8 8 7 7 8 7 7 7 7 7 7 9 8 7 6 6 7 5 5 6 5 5 5 5 6 6 6 6 7 9 10 11 10 10 11 4 5 8 8 6 5 7 6 6 7 7
Wind_Direction
195 178 168 158 188 175 164 163 157 157 154 150 147 139 135 132 126 121 119 115 116 117 117 116 112 111 107 104 92 102 101 97 92 78 95 97 88 97 97 90 89 89 85 79 76 75 71 69 66 62 57 55 55 53 54 55 52 49 49 48 49 51 52 51 49 50 49 46 45 48 54 57 55 61 64 60 57 48 42 35 17 59 47 55 58
166 174 172 168 182 174 166 164 159 158 158 152 149 144 139 131 126 122 118 116 114 117 123 121 119 118 114 108 111 108 98 99 90 86 89 100 97 93 92 91 87 84 82 79 74 71 69 67 67 66 59 58 56 56 56 55 53 48 47 46 44 44 47 48 48 45 43 38 37 41 44 56 56 56 60 59 57 51 47 42 38 52 59 55 62
155 164 169 164 180 174 168 165 162 160 161 155 151 147 140 135 131 128 122 122 119 118 121 123 125 122 120 118 114 115 108 101 92 86 91 100 99 99 94 96 93 88 85 83 81 78 73 70 67 62 59 58 57 56 56 56 53 49 48 48 46 44 45 50 49 44 41 34 15 66 92 69 55 55 56 57 57 53 48 49 48 52 56 55 55
159 165 170 149 177 180 166 163 164 162 159 156 150 145 141 139 136 134 132 130 127 124 126 128 127 125 123 123 123 116 113 107 101 93 88 97 103 103 99 96 94 93 90 87 84 80 75 70 66 62 58 54 52 51 49 49 49 47 47 49 52 51 50 55 53 51 41 22 359 319 68 69 70 60 63 60 57 54 50 48 51 53 55 56 54
161 161 170 160 174 168 169 160 162 162 159 154 151 146 145 143 141 137 136 135 133 131 134 135 136 131 123 120 121 123 119 117 109 103 97 101 106 107 107 104 101 98 94 89 84 77 73 69 64 59 55 51 48 47 44 42 42 42 41 42 48 55 56 60 63 61 51 27 346 310 62 68 74 70 68 67 62 55 52 51 49 49 46 48 51
165 159 169 166 170 162 168 160 161 159 159 156 153 148 148 145 143 141 140 139 137 137 137 142 143 137 133 129 128 127 126 123 116 110 107 105 110 114 113 109 106 102 97 91 85 79 71 67 63 59 52 46 43 40 38 36 35 35 36 38 41 52 60 68 66 59 50 359 259 49 55 57 67 70 67 69 65 59 55 52 50 47 41 37 49
168 161 171 170 170 166 163 162 160 162 161 158 155 152 150 149 148 146 142 141 140 140 144 143 149 145 138 137 132 132 132 131 123 115 114 112 117 118 117 111 103 97 95 94 87 81 74 68 65 60 54 48 42 38 35 32 29 30 31 35 38 50 62 76 72 49 346 268 42 43 54 53 66 74 69 63 59 56 54 52 48 44 41 35 22
171 166 174 170 178 142 169 159 163 164 159 160 155 156 154 150 151 147 143 142 142 146 148 146 155 145 144 139 136 135 137 135 125 123 118 115 118 123 119 114 110 109 101 90 88 82 80 75 67 60 55 48 40 35 32 30 29 27 31 34 45 58 61 67 70 57 312 15 27 33 41 52 73 73 63 63 59 50 51 54 50 49 42 40 27
173 173 170 170 172 126 165 166 162 161 163 160 158 158 158 156 153 150 150 147 148 148 147 153 153 150 145 148 142 142 143 140 135 129 127 120 119 121 120 116 112 103 100 100 86 82 81 76 67 62 58 51 43 34 27 23 25 28 31 40 55 60 61 69 74 214 204 49 46 55 36 49 47 77 63 58 58 53 39 28 51 49 53 42 39
161 174 172 176 178 128 164 170 164 165 164 160 161 160 162 159 158 154 153 149 151 152 154 159 158 155 154 154 154 151 148 148 143 136 135 127 125 124 122 119 116 115 116 98 94 91 79 69 64 61 58 54 48 38 28 23 21 27 35 47 59 68 73 89 159 232 58 98 81 59 33 332 72 59 71 63 61 55 53 45 47 45 49 48 43
152 166 175 182 163 126 162 176 157 173 170 160 162 166 162 164 160 158 158 153 158 157 158 164 163 162 161 156 160 162 154 153 143 139 141 132 130 126 123 122 121 121 99 85 83 76 74 71 67 65 60 58 53 43 34 26 25 29 41 53 61 68 76 60 266 110 49 71 58 78 95 287 33 55 62 63 60 59 52 44 41 43 42 42 41
155 156 168 185 98 122 170 170 162 176 171 167 167 165 166 164 162 161 160 157 161 162 166 171 170 166 163 161 168 170 167 158 149 147 144 135 136 132 132 130 131 114 96 89 77 75 79 78 71 65 63 59 54 47 35 31 29 34 47 54 68 73 72 305 292 64 82 68 60 30 49 16 47 71 60 64 61 57 46 38 33 32 33 35 36
146 150 162 181 185 131 182 151 152 183 176 173 172 174 169 168 165 167 162 162 165 166 172 177 170 170 167 166 175 175 167 166 156 155 154 148 141 137 138 138 128 112 94 79 70 76 84 81 69 62 59 56 53 45 37 35 35 39 47 65 74 90 70 319 238 116 102 81 100 153 88 80 75 60 57 52 49 42 30 29 29 25 27 30 33
156 167 168 186 185 118 143 150 157 179 181 189 184 176 180 173 172 170 167 162 166 169 177 178 176 175 175 175 179 166 165 180 164 163 156 152 147 147 140 136 117 103 90 80 85 92 91 79 67 60 55 52 49 44 39 35 37 42 46 59 69 59 84 284 22 67 77 110 104 65 26 66 55 36 44 60 51 42 30 20 24 29 32 31 26
152 185 185 187 186 191 133 149 152 149 164 181 191 193 177 181 177 175 171 165 167 168 181 185 179 188 185 178 188 174 173 181 173 164 157 156 156 151 146 132 121 104 85 90 96 94 86 75 68 59 52 49 47 45 40 36 38 37 42 43 43 24 328 48 60 99 113 102 131 157 107 358 16 356 33 43 32 33 23 21 24 27 29 27 18
83 177 199 199 199 187 188 147 159 149 133 185 194 199 201 190 182 169 183 166 168 166 177 189 173 190 193 195 195 168 159 174 181 161 164 160 153 148 137 131 115 95 85 87 98 94 87 78 73 65 54 47 47 48 44 41 38 37 39 40 32 19 1 326 88 86 122 135 104 174 128 64 15 5 351 30 38 26 28 15 24 27 20 19 14
59 65 197 196 204 211 206 195 178 165 146 192 189 193 213 184 194 173 174 168 159 167 172 185 176 179 193 191 165 146 170 174 187 162 158 159 139 148 129 128 113 95 91 101 102 94 85 83 77 70 58 49 45 49 47 46 42 40 41 40 33 27 5 325 82 54 27 46 5 324 24 23 13 334 27 25 10 13 17 13 13 19 20 17 14
42 46 96 197 234 227 219 216 198 203 205 168 202 189 180 198 192 204 169 164 163 167 170 176 175 170 172 127 131 146 157 159 166 147 161 153 138 142 128 125 111 100 103 109 107 99 93 86 77 71 60 51 50 48 49 45 46 47 41 38 32 21 8 315 41 43 32 12 266 340 295 17 341 16 29 1 356 7 5 5 4 6 16 30 30
44 40 33 20 304 290 244 232 223 214 213 215 210 186 188 180 188 208 227 168 175 170 162 166 157 144 127 123 122 142 144 140 132 153 150 144 134 144 138 132 118 117 117 116 112 107 100 88 80 73 63 55 51 51 47 43 47 45 40 33 22 2 311 285 30 9 322 333 345 320 28 344 350 320 327 335 351 355 5 359 11 27 25 39 31
53 40 29 21 350 303 281 256 239 228 221 221 219 217 178 187 180 172 187 252 168 162 159 151 141 135 137 136 131 141 147 131 154 152 127 127 147 170 138 131 134 128 124 124 118 110 102 93 84 78 66 61 58 54 45 42 41 44 37 22 4 297 281 23 8 12 336 25 351 344 8 343 344 323 330 333 344 351 354 10 4 9 29 36 42
24 31 23 10 338 309 270 249 244 240 236 231 228 223 189 173 184 173 172 202 244 165 165 153 148 143 146 148 158 204 198 168 172 194 135 188 161 147 151 130 130 128 127 124 118 113 107 100 91 83 79 74 75 73 57 45 40 37 31 17 306 292 30 6 357 20 11 358 345 26 353 349 341 324 325 339 344 358 4 348 345 355 9 36 27
9 1 8 359 345 332 298 265 246 238 239 237 233 227 220 187 217 195 186 185 192 187 177 193 182 188 160 162 203 206 209 196 189 155 190 170 161 224 117 102 127 125 124 124 119 120 118 108 107 99 93 86 63 71 88 82 59 31 28 329 303 26 24 6 1 12 10 14 347 15 352 350 345 330 340 348 350 352 355 343 335 346 348 25 11
4 354 353 352 350 330 317 277 254 243 235 233 232 229 227 207 216 227 207 188 196 194 215 202 209 203 203 212 213 214 213 203 196 157 209 112 125 184 151 132 136 136 134 134 132 136 127 123 121 117 110 142 168 71 59 17 81 137 247 0 27 23 8 8 355 1 9 23 342 9 356 354 349 339 339 348 348 352 340 332 338 331 2 358 349
352 345 333 343 347 338 328 310 279 251 236 232 235 231 228 225 209 222 237 221 211 217 224 220 211 200 208 230 237 230 212 215 124 144 138 166 172 232 146 121 134 141 142 142 143 147 135 133 125 133 145 141 44 39 51 41 18 12 24 18 25 18 8 0 5 354 349 32 22 9 357 351 351 348 334 329 344 348 334 321 327 320 324 356 330
344 327 343 344 346 341 334 308 291 258 244 230 233 233 229 238 232 222 200 257 240 218 216 208 213 205 201 208 220 219 218 222 195 189 207 196 185 190 175 186 181 169 173 176 170 155 180 135 140 173 123 120 87 46 22 27 30 15 25 23 22 20 7 7 359 350 352 354 37 8 0 351 347 347 350 340 322 325 332 320 319 306 317 316 325
352 349 346 340 348 341 333 314 295 262 239 234 231 242 255 236 233 236 233 171 252 271 243 234 224 217 222 223 215 223 225 213 219 214 218 204 192 202 210 209 187 187 187 209 200 190 254 142 160 167 145 115 109 89 40 15 14 12 17 24 8 10 10 8 2 351 347 352 42 14 360 351 345 344 342 341 334 332 318 308 311 297 277 242 302
351 351 342 345 344 340 329 312 280 265 225 231 228 239 236 237 235 239 250 241 224 213 196 208 253 289 267 246 237 234 225 223 212 215 223 213 203 204 215 214 208 202 205 216 202 194 227 171 182 163 134 129 127 126 115 84 28 5 20 19 7 349 350 9 1 349 343 347 48 52 4 353 349 344 340 335 332 335 340 327 290 303 301 199 273
347 347 351 351 346 340 333 306 231 239 206 211 217 220 239 240 244 232 244 311 304 275 277 202 122 224 229 232 249 260 233 231 220 223 219 221 214 192 195 201 216 216 204 212 171 135 184 203 185 142 144 144 141 139 132 130 114 0 358 3 351 335 349 346 355 344 327 335 339 83 7 360 357 348 343 337 331 330 332 335 327 286 305 298 210
353 350 340 337 335 340 341 346 194 188 194 187 206 208 217 234 222 207 217 203 47 4 346 347 344 342 5 298 270 255 255 262 242 218 221 225 219 218 198 190 193 194 184 186 187 189 203 207 194 166 155 159 153 151 148 130 133 32 347 353 332 341 345 328 336 328 309 309 317 93 43 26 359 355 350 341 333 331 326 326 330 321 313 300 299
353 343 339 335 332 330 358 28 134 162 161 157 170 197 202 222 218 237 240 236 149 69 58 49 38 21 46 3 297 263 246 233 213 224 218 229 231 214 210 201 196 183 191 202 198 200 205 204 166 160 165 177 169 133 218 123 102 31 1 344 340 338 336 334 330 325 324 307 310 27 138 31 14 347 351 344 339 334 330 325 327 329 336 332 320
352 351 345 338 329 333 358 28 112 157 127 145 146 141 200 197 230 121 45 41 43 50 41 33 43 28 29 34 16 357 334 317 273 256 261 249 223 223 212 195 214 207 208 224 188 215 229 273 204 192 198 204 149 141 268 104 106 87 47 341 343 324 329 330 325 322 317 318 322 324 248 155 19 334 333 344 340 338 335 331 331 334 330 336 332
356 351 344 336 337 342 346 18 54 146 128 144 100 61 48 53 46 51 59 56 57 50 55 45 47 38 35 42 38 33 31 39 30 33 27 11 15 50 40 21 36 64 34 357 38 31 24 16 6 18 6 278 101 54 356 330 29 40 12 347 331 325 327 329 320 320 315 320 315 319 322 329 178 226 310 333 344 342 335 333 333 336 335 332 334
349 345 342 344 352 346 356 16 24 38 57 65 70 69 60 57 52 53 56 54 58 53 53 41 40 38 40 43 43 45 38 41 53 58 56 50 52 59 60 51 41 40 46 48 50 49 62 64 64 19 8 5 25 35 4 320 5 29 0 6 332 329 336 324 326 325 329 322 319 320 319 317 317 196 192 274 329 334 338 334 333 333 333 336 334
345 345 348 354 344 323 3 34 51 56 61 67 66 67 63 61 59 56 53 57 57 54 49 39 33 37 39 36 45 50 51 38 46 56 56 64 59 59 66 60 65 73 70 66 66 54 59 52 35 344 39 18 33 29 333 318 34 54 35 24 313 324 319 312 323 326 319 316 319 312 307 313 310 314 317 202 199 301 338 339 334 328 326 332 333
359 356 357 350 356 354 28 54 55 62 65 67 67 65 59 62 61 56 55 58 58 61 55 46 43 38 38 38 45 50 52 51 50 63 53 54 52 46 48 53 57 76 76 67 75 66 61 60 20 26 39 42 38 27 355 339 336 341 332 292 291 296 274 274 273 273 276 297 298 304 309 306 313 315 313 323 182 162 36 350 341 332 332 332 326
8 355 348 352 8 13 50 60 58 63 64 64 69 69 67 66 64 55 56 51 55 55 53 52 49 40 33 37 42 49 48 45 45 60 70 59 58 55 49 49 59 61 58 60 72 78 94 81 44 25 29 36 26 43 14 334 320 314 309 303 300 283 288 277 274 271 275 288 292 296 301 305 310 327 325 304 321 5 101 1 336 334 332 327 325
8 4 2 2 21 15 21 61 62 68 68 68 70 68 67 64 62 57 56 51 50 49 45 44 49 44 31 25 25 40 41 42 48 58 68 64 60 61 58 58 59 59 55 53 58 52 57 70 54 5 41 116 24 60 34 343 331 317 303 303 297 293 278 292 289 310 305 302 306 301 295 303 309 296 300 324 320 318 98 49 319 310 300 310 311
11 13 8 13 24 25 30 49 72 75 79 78 76 77 76 77 71 67 59 57 51 47 43 40 44 43 39 28 23 31 39 39 40 51 62 64 60 58 63 58 64 67 65 61 62 50 54 63 73 44 18 14 38 26 19 352 329 314 311 306 305 290 290 287 315 328 325 333 320 320 328 321 308 313 309 315 319 319 323 300 248 253 247 260 300
19 15 16 20 33 33 45 39 68 76 81 89 94 93 86 80 76 70 64 61 53 46 42 46 43 40 34 27 30 34 25 34 36 35 53 56 59 52 53 46 51 57 59 59 60 52 52 41 57 79 70 51 30 21 349 296 289 283 290 295 280 265 275 284 318 354 356 344 330 329 323 326 326 330 338 328 321 320 312 308 317 320 301 233 297
30 25 33 32 29 36 47 45 32 73 88 84 84 83 83 85 84 77 68 60 59 54 49 52 48 45 36 33 33 36 31 27 28 35 45 47 47 50 52 46 47 50 56 55 47 43 45 50 50 60 78 73 55 345 312 320 279 252 254 272 257 269 255 273 93 94 12 3 356 349 358 341 346 4 355 329 336 322 314 319 318 315 316 307 277
45 41 45 39 35 32 43 42 16 32 64 76 76 82 86 91 80 77 81 74 69 65 61 55 53 48 41 41 40 41 36 31 28 33 38 42 39 41 44 44 46 51 54 52 50 48 41 54 76 60 63 64 36 4 349 311 322 328 294 253 245 206 168 150 139 83 6 4 9 9 5 356 17 14 6 347 327 323 328 331 327 322 324 318 311
46 49 50 44 46 44 48 42 34 44 48 53 66 63 57 66 90 85 90 80 74 67 65 55 53 50 47 44 43 43 43 41 35 34 35 33 34 34 34 32 34 43 47 45 40 37 33 26 11 66 54 60 53 10 4 325 18 349 320 315 248 221 146 132 112 19 352 6 38 31 357 10 24 2 351 340 329 338 350 340 330 321 313 315 315
60 62 60 65 59 59 56 55 49 48 42 42 56 66 67 67 79 88 88 88 74 74 74 68 61 58 51 46 45 44 46 46 43 41 39 35 38 39 37 35 33 36 46 46 41 39 32 29 25 16 57 81 68 39 25 16 353 316 257 283 341 336 162 124 37 341 337 44 27 349 8 35 25 356 340 334 350 352 342 332 325 317 315 313 310
63 65 66 73 73 71 71 73 67 64 64 59 68 69 72 76 77 85 85 86 92 84 77 68 63 58 52 46 44 43 44 47 43 45 46 42 38 39 38 35 34 33 40 44 40 38 32 30 28 28 11 50 39 45 36 31 21 353 6 339 313 310 309 99 349 317 334 197 323 353 43 12 359 354 342 350 346 333 326 329 320 316 314 307 305
54 54 57 76 86 89 89 87 84 83 86 86 85 89 90 88 91 94 92 90 83 79 76 66 61 60 58 47 44 44 46 47 46 46 47 46 42 39 38 38 38 34 38 43 42 35 31 30 26 34 28 22 40 38 45 36 36 26 5 338 323 289 8 333 328 310 119 323 328 9 354 341 356 354 343 329 327 326 326 321 320 314 306 306 300
45 29 31 57 83 91 93 96 95 92 92 86 89 108 105 104 103 91 81 72 68 57 58 66 62 59 61 60 53 49 50 50 48 49 48 48 46 43 40 39 37 36 34 39 39 37 31 29 26 27 28 20 21 34 29 37 45 36 37 39 7 338 325 322 308 311 317 288 354 311 313 350 14 335 323 323 329 329 328 322 317 314 309 302 302
46 34 42 55 68 75 77 80 86 88 85 89 92 98 87 79 76 76 77 77 85 71 70 70 75 72 70 64 59 50 48 51 48 47 47 46 47 43 42 41 39 36 33 36 34 31 29 26 22 30 29 24 24 42 27 11 27 37 23 24 25 359 326 323 335 319 320 351 273 314 314 339 327 323 322 326 332 330 330 325 320 318 315 310 305
67 72 73 72 77 82 86 86 84 83 81 88 84 87 94 90 90 86 83 83 83 89 80 74 72 75 72 65 63 57 50 48 48 45 44 42 42 43 40 41 42 38 35 38 35 27 27 28 27 28 31 33 31 37 34 24 22 14 6 12 5 353 342 335 338 332 313 307 311 309 332 331 323 314 314 333 333 336 329 324 320 319 319 315 311
61 71 78 82 86 87 89 90 87 83 81 83 87 82 87 93 97 100 97 90 92 91 87 81 76 73 73 66 63 60 55 49 46 44 42 40 39 39 38 39 38 35 36 38 34 31 30 28 25 28 27 31 33 28 34 33 26 18 1 8 4 0 352 9 338 341 328 316 307 322 318 318 308 318 328 321 332 336 324 318 316 309 310 312 315
73 81 85 88 87 89 90 88 84 83 85 84 86 86 88 95 96 99 102 103 101 96 89 84 79 73 70 66 61 58 52 50 46 43 43 41 40 39 38 36 35 31 30 29 25 26 25 25 25 27 25 30 29 30 30 19 22 20 12 359 7 356 353 356 354 345 326 303 307 316 319 323 321 320 313 300 330 326 313 308 315 315 314 317 320
84 90 86 89 87 90 94 88 85 87 84 86 89 89 88 90 94 97 100 102 99 98 95 83 79 73 71 66 63 58 53 50 46 44 40 37 41 40 39 37 34 32 29 27 23 20 20 21 19 23 29 24 20 18 24 24 8 17 11 10 9 4 354 342 336 338 327 321 316 311 314 315 311 310 318 320 315 310 303 306 303 309 318 318 319